View from above orbital plane
|
View from above satellite
|
Ground track
|
The orbit data is extracted from the following two-line orbital elements,
1 32791U 08021J 22176.48715393 .00002313 00000-0 22915-3 0 9992
2 32791 97.6110 152.5661 0013338 155.6011 204.5843 14.92707468768477
Epoch (UTC): | 25 June 2022 11:41:30 |
Eccentricity: | 0.0013338 |
inclination: | 97.6110° |
perigee height: | 580 km |
apogee height: | 599 km |
right ascension of ascending node: | 152.5661° |
argument of perigee: | 155.6011° |
revolutions per day: | 14.92707468 |
mean anomaly at epoch: | 204.5843° |
orbit number at epoch: | 76847 |
The dashed part of the orbit path shows where the satellite is in the earth's shadow,
|
|